This is the latest recevied weather packets stored in our database for station/object W5COG. If no packets are shown the sender has not sent any weather packets the latest 10 day(s).
| Time | Temp. | Humidity | Pressure | Rain* | Wind** | Luminosity | Snow |
|---|---|---|---|---|---|---|---|
| 1777667727 | 20.56° C | 33% | 1017.2 hPa | 0 mm | - | 769 W/m² | - |
| 1777667427 | 20.56° C | 34% | 1017.3 hPa | 0 mm | - | 791 W/m² | - |
| 1777667127 | 20° C | 34% | 1017.4 hPa | 0 mm | - | 781 W/m² | - |
| 1777666827 | 20° C | 35% | 1017.4 hPa | 0 mm | - | 811 W/m² | - |
| 1777666527 | 20° C | 38% | 1017.5 hPa | 0 mm | - | 764 W/m² | - |
| 1777666227 | 20° C | 38% | 1017.7 hPa | 0 mm | - | 682 W/m² | - |
| 1777665927 | 20° C | 37% | 1017.8 hPa | 0 mm | - | 859 W/m² | - |
| 1777665627 | 20° C | 38% | 1018 hPa | 0 mm | - | 873 W/m² | - |
| 1777665327 | 20° C | 37% | 1018.1 hPa | 0 mm | - | 503 W/m² | - |
| 1777665027 | 20° C | 38% | 1018.2 hPa | 0 mm | - | 704 W/m² | - |
| 1777664727 | 20° C | 37% | 1018.3 hPa | 0 mm | - | 905 W/m² | - |
| 1777664427 | 20° C | 38% | 1018.3 hPa | 0 mm | - | 874 W/m² | - |
| 1777664127 | 20° C | 41% | 1018.4 hPa | 0 mm | - | 822 W/m² | - |
| 1777663827 | 19.44° C | 38% | 1018.6 hPa | 0 mm | - | 867 W/m² | - |
| 1777663527 | 19.44° C | 39% | 1018.6 hPa | 0 mm | - | 819 W/m² | - |
| 1777663227 | 19.44° C | 39% | 1018.7 hPa | 0 mm | - | 692 W/m² | - |
| 1777662927 | 19.44° C | 38% | 1018.8 hPa | 0 mm | - | 751 W/m² | - |
| 1777662627 | 19.44° C | 38% | 1018.8 hPa | 0 mm | - | 777 W/m² | - |
| 1777662327 | 19.44° C | 40% | 1018.7 hPa | 0 mm | - | 705 W/m² | - |
| 1777662027 | 19.44° C | 39% | 1018.7 hPa | 0 mm | - | 764 W/m² | - |
| 1777661727 | 20° C | 40% | 1018.8 hPa | 0 mm | - | 807 W/m² | - |
| 1777661427 | 20° C | 39% | 1018.9 hPa | 0 mm | - | 910 W/m² | - |
| 1777661127 | 20° C | - | - | 0 mm | - | 106 W/m² | - |
| 1777660827 | 19.44° C | - | - | 0 mm | - | 102 W/m² | - |
| 1777660527 | 19.44° C | 40% | 1019.1 hPa | 0 mm | - | 966 W/m² | - |
* Rain latest hour (hover to see other rain measurements)
** Current wind speed in m/s (hover to see current wind gust speed)